Location: Berkeley
(37.8716°N, 122.2727°W)
Time: 07:19:53
(UTC-07:00)

ISS - Visible Passes

Search period start: 10 May 2026 00:00
Search period end: 20 May 2026 00:00
Orbit: 414 x 424 km, 51.6° (Epoch: 10 May)

Date Brightness Start Highest point End Pass type
(mag) Time Alt. Az. Time Alt. Az. Time Alt. Az.
10 May -1.6 04:35:20 14° SSE 04:35:20 14° SSE 04:36:00 10° SSE visible
10 May -2.2 21:11:42 10° WSW 21:14:50 38° NW 21:18:00 10° NE visible
10 May -0.3 22:51:33 10° NNW 22:52:23 11° NNW 22:53:15 10° N visible
11 May -0.6 22:02:45 10° NW 22:04:30 13° NNW 22:06:16 10° NNE visible
12 May -0.8 21:14:17 10° WNW 21:16:39 18° NNW 21:19:02 10° NNE visible
14 May -0.4 21:17:46 10° NNW 21:18:37 11° NNW 21:19:29 10° N visible
15 May -0.5 23:44:51 10° NNW 23:45:47 13° N 23:45:47 13° N visible
16 May -0.7 22:57:45 10° N 22:58:48 11° NNE 22:59:40 10° NNE visible
17 May -0.7 23:45:37 10° NNW 23:46:30 15° NNW 23:46:30 15° NNW visible
18 May -1.3 22:58:11 10° NNW 23:00:24 19° NNE 23:00:24 19° NNE visible
19 May -1.1 22:10:51 10° NNW 22:12:43 14° NNE 22:14:19 11° NE visible
19 May -0.7 23:46:39 10° NW 23:47:15 14° NW 23:47:15 14° NW visible
